COSMOS 1930

导读 | 豆包AI

COSMOS 1930(宇宙1930)是苏联/俄罗斯(独联体CIS)宇宙卫星系列成员,1988年3月11日发射入轨。 宇宙系列是人类航天史上规模最大的卫星家族,涵盖科研、军用、技术试验等多类任务,大多数为军用卫星,COSMOS 1930延续了系列使命,完成既定空间任务后,至今仍作为空间碎片在轨运行,是冷战后期苏联航天活动的见证。

基本信息
目录编号:
18943
目录名称:
COSMOS 1930
国际标识:
1988-016G
轨道中心:
EARTH
卫星名称:
COSMOS 1930
卫星全名:
--
卫星状态:
在轨 (已飞行13929 天)
发射日期:
1988-03-11 UTC
国别 :
俄罗斯(独联体) (CIS)
星等 :
--
轨道信息
数据来源 国际轨道数据
星历时间: 2026-04-30T13:42:58+0800
9小时前
查看轨道信息
半长轴: 7814.98km
偏心率: 0.0029494
轨道倾角: 74.002°
近地点辐角 174.182°
升交点赤经 136.773°
平近点角 261.685°
近地点: 1413.793km
远地点: 1459.893km
周期: 114.591分钟
每日圈数: 12.566404
详细信息
使用方式:
暂无
2D轨道图
3D轨道图
轨道高度分析图
轨道倾角分析图
轨道综合分析图
查看轨道综合分析图